CYGP

Gaspé (Michel-Pouliot) Airport

ICAO Code CYGP
IATA Code YGP
Name Gaspé (Michel-Pouliot) Airport
Location Gaspé, Quebec, CA
Elevation 112 Feet / 34.1 Meters
Latitude 48.77500000
Longitude -64.48166667
METAR CYGP 020000Z 04003KT 15SM FEW120 16/12 A2981 RMK AC1 SLP095 DENSITY ALT 400FT
Extra information Display Charts and CFS
Display NOTAMS
Runway Length Width Surface Elevation
10 5488 ft 150 ft ASP 112 ft
28 5488 ft 150 ft ASP 89 ft

Mandatory Routes

Gaspé (Michel-Pouliot) Airport

Direction Destination Level Remark Type Route
DEP TO W H RNAV MIVAX